Epoch 2023 Sept. 13.0 TT = JDT 2460200.5                Pike                    
M  32.35089              (2000.0)            P               Q                  
n   0.00348886     Peri.  286.22586     +0.78489659     +0.61960388             
a  43.0539817      Node    35.48742     -0.56493443     +0.71912141             
e   0.0623244      Incl.    0.52574     -0.25453178     +0.31457184             
P 283              H    8.56          G   0.15           U   7                  
Residuals in seconds of arc
K198S  W84  0.0   0.0     K199T  W84  0.1-  0.0     K21A4  W84  0.0   0.0  
K198S  W84  0.0   0.1-    K2196  W84  0.1+  0.1+    K21A4  W84  0.0   0.0  
K199T  W84  0.0   0.1+    K2196  W84  0.1-  0.1-    
2019 QT111                                                                      
Epoch 2023 Sept. 13.0 TT = JDT 2460200.5                Pike                    
M 218.89560              (2000.0)            P               Q                  
n   0.00336921     Peri.  343.70411     -0.76460438     -0.64440846             
a  44.0673906      Node   156.16406     +0.59427538     -0.71144002             
e   0.0260270      Incl.    1.53952     +0.24943320     -0.28034057             
P 293              H    8.37          G   0.15           U   6                  
Residuals in seconds of arc
K198S  W84  0.0   0.0     K20AI  W84  0.0   0.0     K2196  W84  0.1+  0.0  
K198S  W84  0.1-  0.0     K20AI  W84  0.1+  0.1-    K2196  W84  0.0   0.1+ 
K199T  W84  0.0   0.1+    K20AL  W84  0.1+  0.1-    K21A4  W84  0.0   0.0  
K199T  W84  0.0   0.0     K20AL  W84  0.1-  0.0     K21A4  W84  0.1-  0.0  
2020 UF74                                                                       
Epoch 2023 Sept. 13.0 TT = JDT 2460200.5                Pike                    
M   6.67235              (2000.0)            P               Q                  
n   0.00333321     Peri.  354.35349     +0.98179178     +0.18993673             
a  44.3840951      Node   354.69461     -0.17299574     +0.88750303             
e   0.0801774      Incl.    1.85215     -0.07846889     +0.41983616             
P 296              H    9.45          G   0.15           U   7                  
Residuals in seconds of arc
K199T  W84  0.1+  0.0     K20AL  W84  0.2-  0.1+    K21A4  W84  0.1+  0.1- 
K199T  W84  0.0   0.0     K20AL  W84  0.2+  0.0     K21A4  W84  0.0   0.1+ 
K20AH  W84  0.0   0.1-    K21A3  W84  0.1-  0.0     
K20AH  W84  0.0   0.1+    K21A3  W84  0.0   0.1-    
2020 UG74                                                                       
Epoch 2023 Sept. 13.0 TT = JDT 2460200.5                Pike                    
M  11.91629              (2000.0)            P               Q                  
n   0.00330380     Peri.  241.65889     +0.96302857     +0.26500146             
a  44.6470975      Node   102.94003     -0.22646880     +0.89380786             
e   0.0688689      Incl.    2.85118     -0.14590357     +0.36177582             
P 298              H    8.60          G   0.15           U   9                  
Residuals in seconds of arc
K20AK  W84  0.0   0.1+    K20AM  W84  0.0   0.1-    K21A6  W84  0.0   0.1+ 
K20AK  W84  0.0   0.1-    K2199  W84  0.1-  0.1+    K21A6  W84  0.0   0.0  
K20AM  W84  0.0   0.0     K2199  W84  0.1+  0.1-    
2020 UH74                                                                       
Epoch 2023 Sept. 13.0 TT = JDT 2460200.5                Pike                    
M 116.79134              (2000.0)            P               Q                  
n   0.00350972     Peri.  197.20494     -0.55288667     +0.83193930             
a  42.8832391      Node    39.26507     -0.75552773     -0.47681542             
e   0.0371388      Incl.    4.24357     -0.35141738     -0.28376762             
P 281              H    8.30          G   0.15           U   9                  
Residuals in seconds of arc
K20AK  W84  0.1+  0.1-    K20AM  W84  0.1-  0.0     K21A6  W84  0.1+  0.0  
K20AK  W84  0.1-  0.1+    K2199  W84  0.1+  0.1-    K21A6  W84  0.1-  0.0  
K20AM  W84  0.1+  0.0     K2199  W84  0.1-  0.0     
2020 UJ74                                                                       
Epoch 2023 Sept. 13.0 TT = JDT 2460200.5                Pike                    
M 325.73322              (2000.0)            P               Q                  
n   0.00256376     Peri.   52.80892     +0.45645557     -0.88897867             
a  52.8710926      Node    10.23160     +0.73612775     +0.35399493             
e   0.3379699      Incl.   12.00606     +0.49976419     +0.29052457             
P 384              H    9.02          G   0.15           U   8                  
Residuals in seconds of arc
K20AK  W84  0.0   0.1-    K20AM  W84  0.0   0.1+    K21A6  W84  0.1-  0.0  
K20AK  W84  0.0   0.0     K219T  W84  0.1+  0.1-    K21A6  W84  0.1+  0.0  
K20AM  W84  0.1-  0.0     K219T  W84  0.1-  0.1+    
2021 RS237                                                                      
Epoch 2023 Sept. 13.0 TT = JDT 2460200.5                Pike                    
M 347.02376              (2000.0)            P               Q                  
n   0.00344895     Peri.  202.44993     +0.98464013     -0.17453355             
a  43.3854955      Node   167.59885     +0.16331325     +0.91121257             
e   0.0183823      Incl.    1.24710     +0.06174616     +0.37313495             
P 286              H    8.13          G   0.15           U   7                  
Residuals in seconds of arc
K198S  W84  0.0   0.0     K2194  W84  0.1+  0.0     K21A3  W84  0.0   0.0  
K198S  W84  0.0   0.0     K2194  W84  0.1-  0.1-    K21A3  W84  0.0   0.0  
K20AL  W84  0.0   0.1-    K2196  W84  0.0   0.1+    
K20AL  W84  0.0   0.1+    K2196  W84  0.1-  0.0     
2021 RT237                                                                      
Epoch 2023 Sept. 13.0 TT = JDT 2460200.5                Pike                    
M 183.83520              (2000.0)            P               Q                  
n   0.00393914     Peri.   14.18486     -0.99481063     -0.10038938             
a  39.7071355      Node   160.03115     +0.08798766     -0.93051396             
e   0.1179882      Incl.    2.77707     +0.05108789     -0.35222967             
P 250              H    8.34          G   0.15           U   7                  
Residuals in seconds of arc
K199T  W84  0.0   0.0     K20AI  W84  0.0   0.0     K21A4  W84  0.0   0.0  
K199T  W84  0.0   0.0     K2196  W84  0.1+  0.1-    K21A4  W84  0.0   0.0  
K20AI  W84  0.0   0.0     K2196  W84  0.1-  0.1+    
2021 RU237                                                                      
Epoch 2023 Sept. 13.0 TT = JDT 2460200.5                Pike                    
M 347.17733              (2000.0)            P               Q                  
n   0.00329404     Peri.    5.88738     +0.97481213     -0.22296270             
a  44.7353146      Node     7.00268     +0.20278093     +0.87601574             
e   0.0754887      Incl.    2.52954     +0.09285047     +0.42764945             
P 299              H    8.65          G   0.15           U   7                  
Residuals in seconds of arc
K198S  W84  0.1+  0.0     K199T  W84  0.0   0.1-    K21A4  W84  0.0   0.0  
K198S  W84  0.1-  0.0     K2196  W84  0.1+  0.1+    K21A4  W84  0.0   0.0  
K199T  W84  0.0   0.1+    K2196  W84  0.1-  0.1-    
2021 RV237                                                                      
Epoch 2023 Sept. 13.0 TT = JDT 2460200.5                Pike                    
M   3.66610              (2000.0)            P               Q                  
n   0.00132091     Peri.  174.41851     +0.96649477     +0.24351770             
a  82.2660189      Node   170.26399     -0.25014600     +0.96446875             
e   0.5218698      Incl.   28.68078     -0.05757471     -0.10246542             
P 746              H    9.04          G   0.15           U   7                  
Residuals in seconds of arc
K199T  W84  0.1+  0.0     K20AI  W84  0.0   0.0     K21A6  W84  0.1-  0.0  
K199T  W84  0.1-  0.0     K2199  W84  0.1-  0.1+    K21A6  W84  0.1+  0.1- 
K20AI  W84  0.1-  0.1-    K2199  W84  0.0   0.0     
2021 RW237                                                                      
Epoch 2023 Sept. 13.0 TT = JDT 2460200.5                Pike                    
M  60.76852              (2000.0)            P               Q                  
n   0.00143226     Peri.   62.12314     -0.60846496     +0.79106326             
a  77.9451054      Node   169.66181     -0.79356524     -0.60602546             
e   0.5129780      Incl.   20.60690     -0.00495973     -0.08337904             
P 688              H    6.43          G   0.15           U   8                  
Residuals in seconds of arc
K199T  W84  0.0   0.0     K20AH  W84  0.0   0.0     K21A5  W84  0.0   0.1+ 
K199T  W84  0.0   0.0     K2197  W84  0.1+  0.1+    K21A5  W84  0.0   0.1+ 
K20AH  W84  0.0   0.0     K2197  W84  0.1-  0.3-    
2021 RX237                                                                      
Epoch 2023 Sept. 13.0 TT = JDT 2460200.5                Pike                    
M 357.07889              (2000.0)            P               Q                  
n   0.00350373     Peri.  202.89449     +0.99981722     -0.00266567             
a  42.9320861      Node   157.23379     +0.00923079     +0.93447404             
e   0.0444874      Incl.    2.80422     -0.01674267     +0.35602129             
P 281              H    8.42          G   0.15           U   7                  
Residuals in seconds of arc
K199T  W84  0.0   0.0     K20AH  W84  0.0   0.0     K21A4  W84  0.0   0.0  
K199T  W84  0.0   0.0     K2196  W84  0.1+  0.1-    K21A4  W84  0.0   0.0  
K20AH  W84  0.0   0.0     K2196  W84  0.1-  0.0     
M. P. C. Staff               (C) Copyright 2023 MPC           M.P.E.C. 2023-W158
    
    
More information about the Iaude
mailing list